User: anonymous   Login
Location: Unspecified
(0.0000°N, 0.0000°E)
Time: 14:31:08
(UTC+00:00)
Language:

AQUARIUS - Orbit

View from above orbital plane
View from above orbital plane
View from above satellite
View from above satellite

Ground track
Ground track

The orbit data is extracted from the following two-line orbital elements,

1 37673U 11024A   19047.93529132 +.00000067 +00000-0 +18145-4 0  9995
2 37673 098.0110 057.2027 0002022 078.3238 345.5359 14.72881054413223
Epoch (UTC): 16 February 2019 22:26:49
Eccentricity: 0.0002022
inclination: 98.0110°
perigee height: 650 km
apogee height: 653 km
right ascension of ascending node: 57.2027°
argument of perigee: 78.3238°
revolutions per day: 14.72881054
mean anomaly at epoch: 345.5359°
orbit number at epoch: 41322

The dashed part of the orbit path shows where the satellite is in the earth's shadow,  

DLR